Home > Weather > U.S.A. > Honolulu > Past weeks

Flag for U.S.A. Weather past 2 weeks in Honolulu, Hawaii, U.S.A.

77 °F

Passing clouds.

Feels Like: 79 °F
Forecast: 71 / 80 °F
Wind: 12 mph from Northeast

Location: Honolulu International Airport

Current Time: Dec 1, 2015 at 1:24:00 AM

Latest Report: Dec 1, 2015 at 12:53 AM

Visibility: 10 mi

Pressure: 30.06 "Hg

Humidity: 66%

Dew point: 65 °F

Location of HonoluluLocation

Historic Weather in Honolulu — Graph


Honolulu temperature yesterday

Maximum temperature yesterday: 84 °F (at 11:53 AM)
Minimum temperature yesterday: 77 °F (at 1:53 AM)
Average temperature yesterday: 80 °F

Past Weeks' High & Low Weather Summary

High87 °F (Nov 18, 12:53 PM)100% (Nov 20, 1:53 AM)30.10 "Hg (Nov 20, 1:53 AM)
Low69 °F (Nov 17, 6:53 AM)49% (Nov 16, 2:53 PM)29.77 "Hg (Nov 22, 1:53 PM)
Average78 °F78%29.94 "Hg
* Reported Nov 15 11:53 PM — Nov 30 11:53 PM, Honolulu, Weather by CustomWeather, © 2015

Note: Actual official high and low records may vary slightly from our data, if they occured in-between our weather recording intervals... More about our weather records


Honolulu weather history for previous 24 hours

Time TempWeatherWind HumidityBarometerVisibility
11:53 PM
Mon, Nov 30
77 °FPartly cloudy.9 mph71%30.06 "Hg10 mi
10:53 PM78 °FPassing clouds.12 mph71%30.06 "Hg10 mi
9:53 PM78 °FPassing clouds.10 mph66%30.07 "Hg10 mi
8:53 PM78 °FPassing clouds.13 mph66%30.07 "Hg10 mi
7:53 PM78 °FPassing clouds.12 mph66%30.06 "Hg10 mi
6:53 PM78 °FPassing clouds.14 mph66%30.05 "Hg10 mi
5:53 PM79 °FPassing clouds.10 mph65%30.04 "Hg10 mi
4:53 PM82 °FScattered clouds.9 mph56%30.03 "Hg10 mi
3:53 PM83 °FScattered clouds.16 mph53%30.02 "Hg10 mi
2:53 PM84 °FScattered clouds.21 mph51%30.02 "Hg10 mi
1:53 PM84 °FScattered clouds.13 mph51%30.02 "Hg10 mi
12:53 PM84 °FScattered clouds.16 mph49%30.04 "Hg10 mi
11:53 AM84 °FScattered clouds.12 mph51%30.07 "Hg10 mi
10:53 AM83 °FScattered clouds.17 mph51%30.09 "Hg10 mi
9:53 AM81 °FScattered clouds.17 mph58%30.10 "Hg10 mi
8:53 AM78 °FLight rain. Broken clouds.12 mph69%30.10 "Hg8 mi
7:53 AM78 °FBroken clouds.14 mph64%30.08 "Hg10 mi
6:53 AM77 °FScattered clouds.13 mph69%30.05 "Hg10 mi
5:53 AM77 °FPassing clouds.13 mph69%30.04 "Hg10 mi
4:53 AM77 °FPassing clouds.15 mph66%30.04 "Hg10 mi
3:53 AM78 °FPassing clouds.13 mph64%30.05 "Hg10 mi
2:53 AM78 °FPassing clouds.17 mph64%30.05 "Hg10 mi
1:53 AM77 °FPassing clouds.14 mph69%30.07 "Hg10 mi
Weather by CustomWeather, © 2015

See weather overviewHow to use our weather pages